Temp
38 38 37 37 38 38 37 37 37 37 38 37 38 38 39 40 40 40 40 40 39 39 40 39 40 41 40 41 42 42 41 41 36 39 42 44 44 44 45 47 48 51 53
37 37 36 36 36 35 34 35 36 35 36 36 37 37 38 38 37 36 36 37 36 36 38 38 38 41 38 39 37 37 38 40 39 36 39 40 41 44 44 44 46 48 48
35 35 34 34 33 33 33 33 34 33 34 35 36 36 37 35 34 35 34 34 35 36 36 36 36 36 35 35 35 35 36 39 37 35 35 39 40 41 41 43 44 44 47
34 32 30 30 31 31 31 32 32 32 32 32 34 34 35 33 33 33 33 32 34 35 35 34 34 33 33 32 34 33 34 32 34 33 34 34 35 38 39 37 38 41 41
31 30 29 31 30 30 30 30 30 30 31 32 32 32 33 32 34 32 31 31 32 31 32 33 33 32 33 33 32 30 31 30 29 28 30 32 31 33 33 35 35 36 38
28 27 28 30 29 28 29 29 29 30 30 30 29 29 29 32 34 34 32 30 30 29 28 29 30 30 28 31 32 33 32 29 28 27 27 27 29 31 33 33 33 33 31
26 26 26 28 27 27 28 27 28 28 28 28 27 27 27 28 33 33 32 29 28 27 27 27 27 28 27 29 30 30 29 29 30 28 23 24 23 26 27 27 29 30 32
24 23 24 24 24 25 26 26 27 27 26 26 26 26 25 28 32 32 30 27 26 26 26 26 25 25 27 28 26 24 24 25 26 27 24 24 26 29 29 30 30 31 34
22 22 22 23 23 23 24 24 25 25 25 26 26 24 24 24 31 31 29 25 25 24 25 25 24 24 28 29 24 20 20 22 26 25 26 27 28 29 29 26 25 25 30
20 20 21 22 22 22 22 22 24 25 25 25 25 24 24 23 28 30 29 25 22 22 22 23 24 25 27 27 21 18 16 18 16 16 17 20 23 23 26 24 23 20 24
19 19 19 20 21 21 21 22 21 21 22 20 21 21 22 23 24 28 27 24 23 18 18 18 20 25 25 24 22 19 18 19 13 12 13 14 16 17 18 20 22 21 20
18 18 17 18 21 21 19 19 18 16 16 14 15 16 19 20 23 25 25 24 24 15 16 17 18 21 21 20 17 20 18 14 9 8 8 9 11 12 15 18 20 22 24
16 15 16 17 17 19 15 15 14 14 14 14 16 13 14 17 18 22 22 21 21 16 17 17 18 17 16 13 15 15 10 7 5 4 4 7 10 12 15 16 18 20 22
14 14 15 13 14 13 17 17 13 11 11 13 11 9 8 11 14 17 17 13 16 15 11 8 12 11 11 10 5 6 5 4 3 2 3 6 9 9 10 13 11 14 14
14 14 14 13 10 11 14 11 13 12 12 3 1 6 -0 1 11 20 19 13 8 14 -0 -6 -3 0 -1 -0 -1 -0 1 1 -0 1 1 2 4 5 7 10 10 10 9
12 12 10 11 9 10 7 6 17 17 18 18 19 13 8 17 20 20 19 18 17 13 -12 -15 -6 -4 -5 -4 -5 -4 -3 -3 -2 -1 -1 -0 0 2 3 6 8 7 7
7 8 5 8 5 1 -1 -3 -5 4 16 16 16 16 17 18 18 17 17 13 12 3 -18 -18 -17 -11 -7 -6 -6 -7 -7 -5 -4 -4 -3 -3 -2 0 1 2 3 4 4
-4 0 -2 -3 -4 -6 -5 -6 -7 -8 -9 -7 6 11 13 16 15 14 13 2 -15 -10 -21 -21 -16 -13 -9 -8 -8 -8 -8 -7 -7 -6 -6 -5 -4 -2 -2 -1 1 0 2
-5 -6 -7 -8 -10 -8 -8 -7 -8 -9 -10 -12 -12 0 -1 11 11 9 7 -17 -20 -21 -20 -20 -20 -18 -14 -15 -10 -10 -10 -10 -9 -10 -8 -7 -5 -4 -3 -2 -1 -0 0
-13 -8 -9 -10 -10 -10 -9 -9 -10 -11 -12 -14 -14 -13 -12 -12 -17 -19 -19 -20 -22 -22 -21 -21 -17 -20 -16 -17 -15 -13 -11 -12 -11 -11 -10 -9 -7 -5 -3 -3 -3 -3 -3
-11 -14 -9 -12 -12 -12 -13 -12 -12 -14 -14 -15 -14 -11 10 -14 -18 -20 -21 -21 -21 -23 -21 -22 -17 -18 -17 -19 -20 -21 -14 -13 -13 -13 -12 -11 -9 -8 -3 -3 -4 -3 -3
-11 -12 -13 -13 -12 -11 -13 -13 -13 -14 -15 -15 -14 -13 7 -15 -18 -19 -20 -20 -21 -21 -20 -22 -17 -18 -17 -18 -17 -15 -14 -14 -14 -14 -14 -12 -10 -7 -4 -5 -6 -5 -4
-11 -11 -12 -13 -13 -12 -16 -18 -16 -16 -15 -16 -16 -13 -15 -18 -18 -19 -18 -20 -21 -18 -21 -23 -18 -14 -18 -19 -20 -19 -17 -14 -14 -14 -15 -13 -11 -8 -6 -7 -7 -7 -7
-12 -12 -12 -13 -13 -14 -14 -13 -12 -10 -12 -13 -15 -14 -13 -16 -18 -17 -17 -17 -19 -20 -22 -20 -17 -17 -14 -16 -19 -20 -19 -17 -18 -13 -15 -13 -10 -7 -8 -10 -7 -9 -8
-13 -13 -13 -11 -11 -10 -11 -10 -11 -11 -11 -11 -11 -14 -15 -15 -16 -17 -17 -17 -18 -19 -16 -15 -16 -15 -16 -17 -16 -17 -16 -11 -14 -10 -9 -7 -6 -9 -14 -15 -12 -10 -12
-9 -10 -9 -10 -10 -11 -12 -10 -10 -10 -10 -10 -11 -12 -14 -14 -13 -15 -15 -17 -16 -16 -18 -16 -14 -16 -16 -14 -14 -12 -8 -2 -2 1 1 -8 -14 -10 -14 -11 -13 -12 -12
MSLP
1024.11 1024.25 1024.34 1024.35 1024.35 1024.39 1024.50 1024.62 1024.63 1024.46 1024.35 1024.33 1024.19 1024.07 1023.62 1023.33 1023.22 1023.18 1022.95 1022.67 1022.47 1022.37 1022.08 1021.85 1021.49 1021.12 1020.70 1020.26 1019.95 1019.73 1019.25 1018.75 1017.66 1015.80 1015.58 1014.77 1013.98 1013.19 1012.32 1011.60 1010.69 1009.40 1008.30
1024.37 1024.48 1024.66 1024.78 1024.93 1024.85 1024.92 1024.93 1024.79 1024.88 1024.79 1024.70 1024.64 1024.40 1024.11 1024.14 1024.17 1024.05 1023.76 1023.27 1023.10 1022.90 1022.41 1022.04 1022.01 1021.26 1021.08 1020.79 1020.54 1020.09 1019.49 1018.84 1018.03 1016.16 1015.46 1014.73 1014.16 1013.29 1012.38 1011.34 1010.38 1009.53 1008.70
1024.60 1024.76 1025.01 1025.19 1025.38 1025.52 1025.67 1025.54 1025.23 1025.11 1025.20 1025.02 1024.85 1024.79 1024.70 1024.95 1024.99 1024.66 1024.39 1023.89 1023.56 1023.21 1022.89 1022.66 1022.27 1021.65 1021.50 1021.16 1020.77 1020.18 1019.61 1018.93 1018.33 1017.20 1015.11 1014.82 1013.83 1013.10 1011.87 1011.14 1010.16 1009.08 1008.33
1024.91 1025.21 1025.56 1025.70 1025.79 1025.97 1026.33 1026.33 1026.13 1025.48 1025.39 1025.28 1025.22 1025.24 1025.25 1025.62 1025.47 1025.07 1024.83 1024.54 1023.70 1023.75 1023.61 1023.08 1022.75 1022.41 1022.01 1021.68 1021.02 1020.79 1020.28 1019.49 1018.37 1017.29 1015.80 1014.66 1014.13 1013.21 1012.40 1011.10 1009.03 1008.86 1007.67
1025.21 1025.57 1025.96 1026.10 1026.35 1026.26 1026.72 1027.00 1026.59 1026.17 1025.75 1025.57 1025.71 1025.68 1025.57 1025.68 1025.54 1025.36 1025.06 1024.64 1024.54 1024.34 1024.09 1023.60 1023.26 1023.03 1022.62 1022.33 1021.92 1021.29 1020.64 1019.82 1018.86 1017.71 1016.40 1015.04 1014.26 1013.17 1012.61 1011.62 1010.06 1008.38 1006.98
1025.63 1026.03 1026.36 1026.63 1026.61 1026.47 1027.24 1027.54 1026.90 1026.75 1026.50 1026.20 1026.30 1026.25 1026.22 1025.99 1025.99 1025.57 1025.29 1025.38 1025.07 1024.79 1024.50 1024.15 1023.77 1023.45 1023.34 1022.59 1021.90 1021.51 1021.18 1020.28 1019.43 1018.50 1017.42 1016.14 1014.59 1014.23 1013.07 1011.95 1010.40 1008.56 1005.64
1026.04 1026.47 1026.73 1026.90 1026.96 1027.09 1027.51 1027.76 1027.26 1027.07 1027.28 1027.10 1027.07 1026.90 1026.86 1026.56 1026.10 1025.74 1025.63 1025.81 1025.51 1025.38 1025.04 1024.66 1024.21 1023.94 1023.45 1022.44 1021.81 1021.45 1021.08 1020.67 1020.16 1019.39 1018.19 1017.33 1015.40 1015.06 1013.78 1011.92 1010.72 1009.29 1006.87
1026.49 1026.82 1027.12 1027.20 1027.23 1027.74 1027.61 1028.09 1027.73 1027.26 1027.71 1027.55 1027.55 1027.31 1027.15 1027.01 1026.63 1026.22 1025.99 1026.08 1025.95 1025.71 1025.45 1025.20 1024.87 1024.34 1023.36 1022.44 1022.02 1021.69 1021.32 1020.77 1020.18 1019.54 1018.80 1017.36 1016.35 1014.70 1013.82 1012.13 1010.26 1008.21 1005.99
1027.06 1027.23 1027.36 1027.45 1027.56 1028.04 1027.72 1028.30 1028.45 1027.86 1028.17 1027.62 1027.72 1027.79 1027.60 1027.71 1026.96 1026.58 1026.23 1026.36 1026.09 1025.99 1025.78 1025.61 1025.20 1024.36 1023.37 1022.54 1022.00 1021.67 1021.03 1020.32 1019.76 1019.28 1018.41 1017.36 1016.08 1014.89 1013.96 1012.22 1010.33 1008.68 1005.36
1027.27 1027.49 1027.65 1027.84 1028.00 1028.06 1027.71 1028.37 1028.78 1028.60 1028.55 1027.93 1027.78 1028.16 1028.11 1028.01 1027.44 1026.80 1026.54 1026.73 1026.58 1026.57 1026.28 1025.87 1025.34 1024.31 1023.43 1022.78 1022.53 1022.14 1021.17 1020.47 1020.05 1018.90 1018.10 1016.97 1016.13 1015.01 1013.94 1013.05 1011.38 1009.31 1007.11
1027.55 1027.95 1028.09 1028.19 1028.33 1028.39 1028.06 1028.73 1029.33 1028.76 1028.49 1028.24 1028.30 1028.34 1028.31 1028.25 1027.86 1027.40 1027.47 1027.25 1026.86 1026.97 1026.48 1026.06 1025.61 1024.51 1024.00 1023.52 1023.35 1022.82 1022.20 1021.40 1020.78 1020.07 1018.99 1017.82 1016.51 1015.29 1013.92 1012.67 1011.45 1010.07 1007.61
1027.82 1028.17 1028.39 1028.54 1028.30 1028.58 1029.02 1029.40 1029.30 1028.77 1028.82 1028.70 1028.79 1028.69 1028.76 1028.60 1028.31 1028.13 1027.97 1027.65 1027.28 1027.35 1026.89 1026.67 1026.18 1025.41 1024.90 1024.53 1024.27 1023.42 1022.84 1022.39 1021.70 1020.82 1019.82 1018.57 1017.30 1015.82 1014.25 1012.66 1011.08 1009.47 1007.64
1028.56 1028.26 1028.73 1028.71 1028.68 1029.28 1029.65 1029.46 1029.39 1029.30 1029.21 1029.35 1029.52 1029.29 1029.26 1029.21 1029.06 1028.64 1028.55 1028.30 1027.92 1027.63 1027.48 1027.17 1026.53 1026.21 1025.85 1025.57 1024.89 1024.13 1023.82 1023.21 1022.50 1021.62 1020.71 1019.60 1018.49 1016.93 1015.18 1013.20 1011.03 1009.08 1006.75
1028.69 1028.83 1028.90 1028.93 1029.45 1029.76 1029.58 1029.46 1029.66 1029.91 1030.08 1030.08 1030.01 1029.93 1029.85 1029.55 1029.19 1028.85 1028.65 1028.74 1028.37 1028.07 1028.36 1028.24 1027.40 1027.11 1026.63 1026.32 1025.78 1025.23 1024.83 1024.36 1023.69 1022.84 1021.79 1020.53 1019.01 1017.27 1015.67 1014.18 1012.19 1010.15 1008.04
1028.93 1028.92 1029.06 1029.65 1030.07 1030.01 1029.79 1029.80 1030.10 1030.26 1030.01 1030.19 1030.14 1029.94 1029.88 1029.61 1029.08 1028.60 1028.39 1028.53 1028.31 1028.21 1029.14 1028.99 1028.37 1027.96 1027.52 1027.13 1026.75 1026.28 1025.73 1025.11 1024.35 1023.56 1022.50 1021.22 1019.69 1018.15 1016.61 1015.08 1013.43 1011.55 1009.94
1029.05 1029.43 1030.12 1030.16 1030.14 1030.31 1030.58 1030.59 1030.08 1030.13 1029.96 1029.85 1029.57 1029.49 1029.92 1029.50 1028.97 1028.81 1028.57 1028.60 1028.48 1028.73 1029.94 1030.21 1029.75 1029.24 1028.72 1028.23 1027.72 1027.13 1026.48 1025.86 1025.20 1024.27 1023.20 1022.10 1020.81 1019.27 1017.72 1016.03 1014.64 1013.12 1011.29
1029.83 1030.25 1030.59 1030.62 1031.06 1031.52 1031.57 1031.54 1031.36 1030.70 1030.00 1030.07 1030.12 1029.92 1029.70 1029.39 1029.25 1029.09 1028.99 1029.37 1029.24 1029.93 1030.84 1030.94 1030.66 1030.20 1029.68 1029.19 1028.69 1028.12 1027.41 1026.70 1025.92 1025.02 1024.03 1022.89 1021.79 1020.38 1018.85 1017.29 1015.77 1014.31 1012.35
1030.61 1030.76 1031.11 1031.36 1031.65 1031.99 1032.16 1032.17 1032.17 1031.83 1031.68 1031.60 1031.08 1030.33 1030.24 1029.63 1029.59 1029.52 1029.46 1030.28 1030.61 1030.47 1031.06 1031.60 1031.35 1030.81 1030.27 1029.82 1029.25 1028.70 1027.97 1027.17 1026.37 1025.58 1024.68 1023.65 1022.55 1021.26 1019.76 1018.55 1017.15 1015.83 1014.20
1031.10 1031.35 1031.41 1031.66 1031.94 1032.03 1032.02 1032.07 1032.20 1032.51 1032.45 1032.43 1032.02 1031.16 1031.39 1030.25 1030.06 1030.22 1030.30 1031.28 1031.86 1032.09 1031.70 1031.66 1031.25 1030.92 1030.53 1030.03 1029.58 1029.03 1028.44 1027.66 1026.91 1026.12 1025.25 1024.29 1023.17 1022.05 1020.69 1019.58 1018.29 1017.02 1015.62
1031.38 1031.57 1031.68 1031.84 1032.14 1032.35 1032.34 1032.84 1032.88 1032.85 1032.80 1032.76 1032.66 1032.30 1031.92 1031.56 1031.47 1031.32 1031.35 1031.63 1031.80 1031.85 1031.72 1031.55 1031.21 1030.89 1030.50 1030.07 1029.64 1029.16 1028.52 1027.81 1027.07 1026.39 1025.65 1024.82 1023.74 1022.72 1021.47 1020.34 1019.16 1017.93 1016.60
1031.35 1031.67 1031.77 1032.04 1032.32 1032.46 1032.62 1032.93 1032.91 1032.95 1032.89 1032.82 1032.73 1031.99 1031.49 1031.81 1032.01 1031.85 1031.78 1031.84 1031.83 1031.65 1031.61 1031.35 1031.05 1030.69 1030.32 1029.97 1029.59 1029.11 1028.60 1027.95 1027.31 1026.65 1025.96 1025.12 1024.16 1023.13 1021.93 1021.01 1020.00 1018.80 1017.61
1031.22 1031.51 1031.87 1032.28 1032.16 1032.32 1032.37 1032.18 1032.44 1032.84 1032.85 1032.82 1032.32 1031.82 1031.51 1031.61 1031.62 1031.67 1031.70 1031.84 1031.76 1031.36 1031.05 1031.05 1030.66 1030.35 1029.94 1029.76 1029.32 1028.98 1028.49 1027.86 1027.20 1026.59 1025.99 1025.22 1024.27 1023.30 1022.22 1021.42 1020.58 1019.55 1018.41
1031.01 1031.31 1031.63 1031.80 1031.81 1031.83 1032.09 1032.03 1032.22 1032.30 1032.50 1032.11 1031.79 1031.64 1031.47 1031.35 1031.33 1031.35 1031.36 1031.48 1030.98 1030.62 1030.45 1030.46 1030.10 1029.56 1029.27 1029.00 1028.75 1028.57 1028.17 1027.49 1026.90 1026.48 1026.01 1025.14 1024.23 1023.24 1022.34 1021.75 1021.12 1020.24 1019.28
1030.57 1030.81 1031.15 1031.25 1031.30 1031.60 1031.82 1032.03 1031.61 1031.47 1031.56 1031.55 1031.40 1031.18 1030.97 1030.84 1030.81 1030.75 1030.66 1030.34 1030.19 1029.98 1029.86 1029.70 1029.43 1029.15 1028.56 1028.21 1027.90 1027.60 1027.28 1026.77 1026.40 1025.79 1025.42 1024.84 1023.90 1023.00 1022.28 1021.80 1021.28 1020.76 1020.04
1029.96 1030.20 1030.42 1030.68 1031.00 1031.08 1031.24 1031.11 1031.07 1030.99 1030.91 1030.79 1030.64 1030.47 1030.31 1030.29 1030.27 1030.23 1030.03 1029.82 1029.59 1029.48 1029.03 1028.83 1028.62 1028.23 1027.91 1027.56 1027.20 1026.71 1026.17 1025.75 1025.42 1024.63 1024.11 1023.62 1023.13 1022.55 1022.00 1021.69 1021.32 1020.84 1020.37
1029.25 1029.48 1029.72 1029.90 1030.12 1030.21 1030.38 1030.36 1030.30 1030.14 1030.10 1029.93 1029.83 1029.76 1029.72 1029.70 1029.64 1029.60 1029.32 1029.22 1028.95 1028.67 1028.49 1028.16 1027.75 1027.47 1027.11 1026.67 1026.17 1025.66 1025.09 1024.57 1023.82 1022.95 1022.41 1022.47 1022.57 1022.01 1021.64 1021.37 1020.95 1020.74 1020.45
Wind_Speed
5 5 5 5 6 6 6 6 6 6 7 8 8 8 9 10 11 10 10 10 10 9 9 9 10 9 7 7 7 8 7 8 13 12 10 12 15 15 15 14 15 17 16
5 5 5 5 6 6 6 6 6 7 7 8 8 8 8 12 12 12 11 11 11 10 10 10 11 9 10 10 8 9 8 10 12 20 14 12 14 15 16 18 14 12 15
5 5 5 6 6 7 6 6 6 6 6 7 7 7 8 12 11 11 12 11 9 10 10 10 11 12 11 10 10 10 10 10 11 12 16 12 12 12 15 14 15 15 12
5 6 6 6 6 6 6 6 5 5 5 6 8 9 9 11 11 12 12 11 10 10 11 11 12 13 12 13 12 14 13 13 13 12 14 14 13 13 12 15 17 12 14
5 6 5 6 5 6 6 5 5 5 5 6 8 8 8 10 10 13 12 10 10 11 11 11 11 13 19 19 11 13 15 13 12 12 14 15 14 14 15 14 17 17 15
6 6 6 6 5 6 5 4 5 5 6 8 9 8 9 8 19 22 17 10 10 11 11 11 11 12 16 21 22 23 18 14 14 13 13 16 19 16 16 16 17 17 22
7 6 5 6 7 6 5 4 5 6 6 8 9 8 9 8 20 22 22 9 9 10 10 10 11 10 14 15 19 21 18 21 19 16 17 16 22 17 18 19 18 18 20
7 7 6 7 8 6 6 6 6 5 5 6 7 8 8 8 19 21 20 10 9 10 10 10 11 12 14 18 14 13 12 11 13 13 15 18 19 21 18 18 20 21 19
7 7 7 6 6 5 7 6 5 5 4 5 7 7 8 7 18 20 15 9 10 11 10 9 11 13 23 25 14 14 14 13 16 25 27 28 29 30 25 15 13 16 17
6 6 6 5 4 5 7 4 4 3 4 4 7 4 6 6 16 20 18 7 9 9 10 11 16 19 24 24 14 14 15 16 17 18 17 19 20 19 26 15 14 14 16
6 6 5 4 5 5 6 3 3 2 3 4 3 3 6 8 10 20 21 10 8 7 8 9 9 24 23 23 22 12 16 18 18 13 13 12 14 15 14 15 15 14 15
6 6 5 4 5 5 3 2 2 3 3 3 4 3 6 7 14 15 19 19 17 8 9 8 9 22 21 21 16 24 24 17 10 11 11 12 14 15 16 17 20 17 15
5 6 5 5 5 2 1 2 2 4 4 4 4 4 5 5 5 15 16 19 16 10 9 14 18 19 19 15 22 24 16 11 11 11 12 12 13 14 17 17 18 20 18
6 6 5 5 4 1 3 3 4 4 3 3 3 3 2 4 5 4 5 4 10 8 11 8 13 15 16 15 11 13 9 10 10 10 11 12 12 13 14 14 15 15 14
5 4 5 4 2 2 3 3 2 2 3 2 2 1 2 3 5 12 11 6 3 10 5 3 4 8 8 8 9 9 9 9 10 10 11 12 13 12 12 14 13 15 13
5 5 2 2 2 3 3 2 2 2 3 6 8 4 1 8 12 13 15 14 14 16 5 3 6 7 8 8 9 9 9 11 10 11 11 11 12 13 14 14 13 13 14
5 4 2 3 3 2 1 2 1 5 4 3 6 6 9 9 12 11 13 13 14 10 3 3 3 4 7 7 7 8 9 10 11 9 10 11 11 12 15 13 14 14 15
5 4 3 3 2 2 2 1 1 1 1 3 6 5 10 10 11 11 12 8 5 6 2 2 4 5 6 7 7 8 9 9 9 10 10 10 11 11 12 13 13 14 15
3 3 2 3 2 1 0 0 1 0 1 2 3 4 6 10 11 11 10 2 1 3 3 3 2 3 4 4 6 7 7 8 8 8 9 9 10 11 12 12 12 17 17
3 5 2 2 2 0 0 0 1 1 2 2 2 3 4 3 3 3 2 1 1 2 3 3 4 3 4 4 4 5 7 7 7 7 8 9 9 10 11 12 12 13 13
4 3 3 1 2 2 2 2 2 1 2 2 3 3 9 3 3 2 3 3 3 3 3 3 4 4 4 4 4 3 6 7 6 7 7 8 9 9 10 10 11 11 11
3 3 3 3 3 2 3 2 2 2 3 3 4 4 10 1 2 3 3 4 4 4 3 3 4 4 4 4 4 6 7 7 7 6 7 8 8 8 8 9 10 10 11
3 3 3 3 3 3 1 3 3 3 4 4 3 3 3 3 4 4 4 4 4 4 3 3 4 6 4 4 4 4 6 8 7 6 8 8 8 8 7 7 9 10 10
4 4 4 4 3 3 3 4 4 5 5 4 4 4 4 4 4 5 4 4 4 4 3 3 4 7 7 6 4 5 5 7 5 8 7 8 8 9 6 4 7 9 9
4 4 3 4 4 4 4 5 5 5 5 5 4 4 4 4 4 4 5 4 4 4 5 5 4 7 9 9 10 11 10 12 8 12 8 8 10 8 5 3 5 7 7
5 5 4 4 4 4 4 5 5 5 5 5 5 4 4 4 5 5 5 5 4 4 5 5 7 10 10 9 10 12 13 14 13 15 8 3 4 5 3 5 7 4 6
Wind_Direction
48 55 47 41 41 49 47 40 26 27 27 26 20 20 20 30 23 17 12 14 9 2 2 1 355 351 353 349 3 344 330 318 303 303 306 313 313 315 315 314 314 317 320
56 67 57 48 37 47 44 43 36 36 29 31 23 23 20 42 25 17 12 6 4 354 358 1 352 356 356 356 345 334 328 323 319 310 314 315 311 316 312 312 312 306 306
73 70 58 52 48 44 30 28 40 46 38 30 25 25 27 39 23 16 8 2 351 0 356 357 351 357 354 347 342 338 332 325 315 306 309 312 310 315 313 307 308 305 310
82 72 61 50 49 47 27 18 24 43 43 32 35 29 47 35 22 17 7 353 7 1 3 0 360 356 352 354 354 355 340 329 321 311 311 314 316 319 310 314 307 304 303
87 76 60 57 52 50 35 7 20 27 38 43 50 35 33 39 19 16 9 6 4 8 1 1 359 4 359 3 347 340 337 332 325 317 316 315 319 320 317 314 300 305 298
83 77 65 63 51 61 33 2 30 22 21 53 52 39 43 32 18 17 19 6 9 4 359 0 358 7 358 354 350 349 346 339 331 322 315 311 311 318 314 313 304 301 299
96 86 74 69 64 53 41 23 27 30 27 48 49 38 35 20 19 16 19 6 12 1 358 3 358 1 347 351 349 348 347 340 336 328 313 311 308 313 307 303 297 294 290
93 88 76 71 63 49 47 31 26 47 29 50 49 38 39 20 17 14 18 7 4 3 0 7 359 351 343 350 352 347 340 333 331 332 319 313 310 313 309 303 303 284 277
114 102 85 72 81 75 64 31 10 38 24 52 54 41 37 17 11 14 22 7 360 1 352 4 359 347 349 351 355 345 339 339 340 334 328 323 324 324 324 316 313 316 304
114 102 92 85 86 85 70 48 3 5 35 38 48 47 35 25 5 15 14 7 353 359 343 359 355 350 356 356 2 344 345 344 342 336 331 330 329 325 330 327 320 314 312
111 103 91 91 100 71 67 34 284 320 41 21 78 40 41 18 7 13 6 1 352 2 342 354 350 350 354 359 4 346 350 347 335 333 330 329 332 331 331 327 323 318 309
114 111 108 86 84 73 59 318 335 357 39 34 26 39 35 14 10 5 5 5 359 7 348 349 341 358 359 2 359 358 356 351 339 337 336 336 336 333 330 326 324 319 307
126 110 109 97 78 53 63 8 38 16 37 26 29 23 25 5 355 2 4 4 360 5 358 355 358 2 3 2 359 2 357 353 345 343 340 334 331 324 323 328 329 329 330
134 130 113 83 107 23 49 37 66 31 37 30 27 10 22 350 326 344 10 2 356 360 11 352 1 2 6 4 355 358 354 351 344 337 333 326 326 334 334 336 334 337 331
123 103 102 102 95 95 76 77 52 305 115 135 250 114 64 332 313 359 0 3 343 8 17 343 352 2 357 357 353 349 347 347 347 338 336 334 336 336 337 336 338 335 339
122 98 72 106 65 60 57 360 86 74 48 39 15 48 7 349 354 358 2 9 4 16 23 359 358 356 353 348 347 344 345 344 341 336 336 337 337 337 336 337 338 342 338
106 110 106 78 92 106 63 92 39 334 5 14 9 357 358 354 357 1 7 18 11 32 37 349 341 339 341 340 338 338 334 334 330 336 335 337 337 336 339 340 340 341 339
92 81 115 121 108 105 122 145 133 120 301 304 336 344 2 353 359 6 14 22 0 6 28 347 335 333 332 330 331 331 327 328 334 336 334 335 337 335 341 342 341 341 339
149 139 126 127 121 142 332 63 136 87 253 267 332 344 350 341 355 9 23 103 327 325 320 326 295 306 306 298 317 321 319 321 323 327 331 333 336 335 341 339 338 339 340
113 140 117 131 140 152 129 172 310 304 302 276 298 270 301 28 11 322 330 340 334 286 290 293 297 293 298 299 306 310 317 320 325 327 328 328 330 331 339 338 339 338 340
150 147 147 155 171 188 188 201 213 219 245 262 257 256 291 124 281 268 284 294 277 282 284 281 293 291 290 293 295 295 310 309 311 315 321 322 323 327 336 336 335 336 336
144 158 171 191 188 203 216 200 222 233 247 253 270 280 311 82 265 268 274 272 264 254 252 258 283 277 277 283 295 307 308 304 306 308 314 314 316 319 327 335 336 338 339
160 174 187 199 192 195 219 236 230 233 248 253 257 268 265 251 250 252 257 261 265 269 268 268 280 290 271 265 254 253 279 291 291 295 299 304 308 310 314 330 332 335 338
181 187 195 203 191 202 216 233 235 231 234 245 250 255 254 251 252 257 262 267 273 274 266 268 265 267 285 284 267 257 252 266 262 274 273 279 289 301 307 315 326 324 326
183 192 199 206 212 211 223 232 230 237 238 236 243 244 245 254 261 265 265 263 264 268 275 271 264 275 275 275 280 280 276 286 270 273 272 266 273 282 292 291 306 315 319
198 199 209 208 218 217 219 228 232 230 233 237 238 239 238 245 251 256 262 264 266 265 270 270 273 269 279 284 281 279 285 290 286 278 275 247 272 288 279 286 293 294 303